Weather Roundup
Issued by NWS

Home | Current Version | Previous Version | Text Only | Print | Product List | Glossary On
Versions: 1 2 3 4 5 6 7 8 9 10 11 12 13 14 15 16 17 18 19 20 21 22 23 24 25 26 27 28 29 30 31 32 33 34 35 36 37 38 39 40 41 42 43 44 45 46 47 48 49 50
000
NZUS93 KARX 260910
HRRWXR

CURRENT HOURLY OBSERVATIONS ACROSS
MUCH OF THE UPPER MISSISSIPPI VALLEY
NATIONAL WEATHER SERVICE LA CROSSE WI
400 AM CDT MON JUN 26 2017


...SOUTHEAST MINNESOTA...


CITY           SKY/WX    TMP DP  RH WIND       PRES   REMARKS
ROCHESTER      CLOUDY    50  47  89 NW8       30.14S
ROCHESTER/MAYO CLOUDY    52  46  80 NW7       30.14S
WINONA         MOCLDY    48  46  93 CALM      30.13R
AUSTIN         CLOUDY    54  45  71 W7        30.15R
ALBERT LEA     MOCLDY    54  46  76 CALM      30.16R
DODGE CENTER   MOCLDY    52  46  82 NW7       30.15R
PRESTON        PTCLDY    49  44  81 NW7       30.14S
OWATONNA       MOCLDY    52  46  82 CALM      30.16R
FARIBAULT      MOCLDY    52  46  82 CALM      30.16R
$$

...ELSEWHERE IN MINNESOTA...


CITY           SKY/WX    TMP DP  RH WIND       PRES   REMARKS
MINNEAPOLIS    CLEAR     53  44  71 NW6       30.15R
INTNL FALLS    CLEAR     42  40  92 W3        30.11S
DULUTH         CLOUDY    45  45 100 NW7       30.09S
RED WING       CLEAR     46  43  87 CALM      30.13R
REDWOOD FALLS  CLEAR     50  45  83 NW8       30.18S
MANKATO        NOT AVBL
WORTHINGTON    CLEAR     51  49  92 W5        30.20F
FAIRMONT       CLEAR     54  49  83 NW9       30.19R
$$

...SOUTHWEST WISCONSIN...


CITY           SKY/WX    TMP DP  RH WIND       PRES   REMARKS
LA CROSSE      PTCLDY    53  48  83 SE3       30.11R
PRAIRIE DU CHI MOCLDY    52  45  77 CALM      30.12S
BOSCOBEL       PTCLDY    49  47  93 SW5       30.12R
LONE ROCK      CLEAR     46  44  93 CALM      30.11R
PLATTEVILLE    CLEAR     48  47  97 W6        30.12S
FORT MC COY    MOCLDY    42  42 100 CALM      30.11R
CAMP DOUGLAS   PTCLDY    44  43  95 W6        30.09R
MAUSTON-NEW LI MOSUNNY   50  45  85 NW3       30.08S
VIROQUA        FAIR      48  46  93 W3        30.11S
WIS DELLS      PTCLDY    46  44  95 CALM      30.09R
$$

...ELSEWHERE IN WISCONSIN...


CITY           SKY/WX    TMP DP  RH WIND       PRES   REMARKS
MILWAUKEE      PTCLDY    56  49  77 W8        30.06S
MADISON        CLEAR     52  49  89 W3        30.08S
GREEN BAY      CLEAR     51  51 100 W9        30.02S
EAU CLAIRE     CLEAR     45  44  97 W5        30.10R
BLACK RVR FLS  FAIR      38  38 100 CALM      30.09S
MEDFORD        PTCLDY    44  43  95 NW6       30.06R
WAUSAU         CLEAR     47  46  97 W8        30.03S
WIS RAPIDS     CLEAR     47  44  90 W9        30.08R
MARSHFIELD     CLEAR     47  43  86 W7        30.06R
RICE LAKE      CLEAR     46  43  88 CALM      30.13S
$$

...NORTHEAST IOWA...


CITY           SKY/WX    TMP DP  RH WIND       PRES   REMARKS
WATERLOO       MOCLDY    55  47  74 W7        30.15S
DUBUQUE        PTCLDY    49  44  83 CALM      30.13R
DECORAH        PTCLDY    50  45  81 CALM      30.12S
MASON CITY     MOCLDY    53  48  83 W9        30.18S
CHARLES CITY   MOCLDY    52  48  87 W8        30.16R
OELWEIN        MOCLDY    50  46  87 W7        30.15F
$$

...ELSEWHERE IN IOWA...


CITY           SKY/WX    TMP DP  RH WIND       PRES   REMARKS
DES MOINES     CLOUDY    59  50  72 CALM      30.20R
IOWA CITY      PTCLDY    53  45  74 CALM      30.18R
FORT DODGE     CLOUDY    55  48  76 SW3       30.23S
MARSHALLTOWN   CLOUDY    55  51  86 W7        30.18S
CEDAR RAPIDS   PTCLDY    50  47  89 W9        30.16R
$$

...NORTHERN ILLINOIS...


CITY           SKY/WX    TMP DP  RH WIND       PRES   REMARKS
CHICAGO-OHARE  CLEAR     54  49  83 W6        30.09S
CHICAGO-MIDWAY CLEAR     57  50  77 W5        30.09F
MOLINE         CLEAR     51  46  83 CALM      30.15R
ROCKFORD       CLEAR     53  47  79 W7        30.13S
PEORIA         CLEAR     53  49  86 CALM      30.15S
$$

NOTE: "FAIR" INDICATES FEW OR NO CLOUDS BELOW 12,000 FEET WITH NO
SIGNIFICANT WEATHER AND/OR OBSTRUCTIONS TO VISIBILITY. WIND
SPEEDS ARE IN MILES-PER-HOUR.




USA.gov is the U.S. government's official web portal to all federal, state and local government web resources and services.